| time (UTC) | temp C | wind direction | speed KPH | gust KPH | rain 1hr cm | rain 24hr cm | rain mn cm | humidity % | barometer mb |
| 20260906161704 | 17 | 249 | 20.9 | 35.4 | 0.00 | 0.05 | 0.13 | 89 | 1008.1 |
| 20260906161205 | 17 | 238 | 19.3 | 32.2 | 0.00 | 0.05 | 0.13 | 89 | 1008.1 |
| 20260906160203 | 17 | 278 | 19.3 | 29.0 | 0.00 | 0.05 | 0.13 | 89 | 1008.0 |
| 20260906155704 | 17 | 240 | 17.7 | 32.2 | 0.00 | 0.05 | 0.13 | 89 | 1008.0 |
| 20260906155204 | 17 | 251 | 17.7 | 32.2 | 0.00 | 0.05 | 0.13 | 89 | 1008.0 |
| 20260906154703 | 17 | 251 | 22.5 | 38.6 | 0.00 | 0.05 | 0.13 | 89 | 1008.0 |
| 20260906154205 | 17 | 245 | 16.1 | 29.0 | 0.00 | 0.05 | 0.13 | 89 | 1008.0 |
| 20260906153704 | 17 | 238 | 20.9 | 35.4 | 0.00 | 0.05 | 0.13 | 89 | 1008.0 |
| 20260906153204 | 18 | 242 | 19.3 | 40.2 | 0.00 | 0.05 | 0.13 | 89 | 1007.9 |
| 20260906152704 | 18 | 238 | 24.1 | 38.6 | 0.00 | 0.05 | 0.13 | 88 | 1007.8 |
| 20260906152203 | 18 | 242 | 25.7 | 37.0 | 0.00 | 0.05 | 0.13 | 88 | 1007.7 |
| 20260906151704 | 18 | 234 | 20.9 | 33.8 | 0.00 | 0.05 | 0.13 | 88 | 1007.8 |
| 20260906151204 | 18 | 245 | 24.1 | 40.2 | 0.00 | 0.05 | 0.13 | 88 | 1007.7 |
| 20260906150704 | 18 | 235 | 24.1 | 40.2 | 0.00 | 0.05 | 0.13 | 88 | 1007.6 |
| 20260906145203 | 18 | 232 | 24.1 | 37.0 | 0.00 | 0.05 | 0.13 | 90 | 1007.8 |
| 20260906144204 | 18 | 231 | 22.5 | 38.6 | 0.05 | 0.05 | 0.13 | 91 | 1007.8 |
| 20260906143704 | 18 | 245 | 22.5 | 41.8 | 0.05 | 0.05 | 0.13 | 91 | 1007.8 |
| 20260906143203 | 18 | 244 | 19.3 | 37.0 | 0.05 | 0.05 | 0.13 | 91 | 1007.8 |
| 20260906142703 | 18 | 237 | 22.5 | 37.0 | 0.05 | 0.05 | 0.13 | 91 | 1007.6 |
| 20260906142204 | 18 | 239 | 20.9 | 41.8 | 0.05 | 0.05 | 0.13 | 91 | 1007.7 |
| 20260906141704 | 18 | 234 | 24.1 | 38.6 | 0.05 | 0.05 | 0.13 | 92 | 1007.6 |
| 20260906141204 | 18 | 250 | 14.5 | 33.8 | 0.05 | 0.05 | 0.13 | 93 | 1007.5 |
| 20260906140704 | 18 | 247 | 20.9 | 32.2 | 0.05 | 0.05 | 0.13 | 93 | 1007.4 |
| 20260906135704 | 18 | 237 | 14.5 | 27.4 | 0.05 | 0.05 | 0.13 | 93 | 1007.4 |
| 20260906135204 | 18 | 241 | 19.3 | 40.2 | 0.05 | 0.05 | 0.13 | 93 | 1007.4 |
| 20260906134704 | 18 | 240 | 14.5 | 29.0 | 0.03 | 0.05 | 0.10 | 93 | 1007.3 |
| 20260906134203 | 18 | 235 | 19.3 | 35.4 | 0.00 | 0.03 | 0.08 | 93 | 1007.3 |
| 20260906133703 | 18 | 220 | 19.3 | 32.2 | 0.00 | 0.03 | 0.08 | 93 | 1007.1 |
| 20260906132704 | 19 | 210 | 20.9 | 33.8 | 0.00 | 0.03 | 0.08 | 93 | 1007.2 |
| 20260906132203 | 18 | 208 | 25.7 | 33.8 | 0.00 | 0.03 | 0.08 | 93 | 1007.2 |
| 20260906131704 | 18 | 200 | 22.5 | 35.4 | 0.00 | 0.03 | 0.08 | 94 | 1007.2 |
| 20260906131204 | 18 | 218 | 20.9 | 35.4 | 0.00 | 0.03 | 0.08 | 94 | 1007.3 |
| 20260906130204 | 18 | 216 | 20.9 | 32.2 | 0.00 | 0.03 | 0.08 | 94 | 1007.4 |
| 20260906125704 | 18 | 226 | 22.5 | 37.0 | 0.00 | 0.03 | 0.08 | 94 | 1007.2 |
| 20260906124704 | 18 | 210 | 20.9 | 35.4 | 0.00 | 0.03 | 0.08 | 94 | 1007.3 |
| 20260906124204 | 18 | 218 | 20.9 | 33.8 | 0.00 | 0.03 | 0.08 | 95 | 1007.2 |
| 20260906123204 | 18 | 224 | 22.5 | 41.8 | 0.03 | 0.03 | 0.08 | 95 | 1007.2 |
| 20260906122704 | 18 | 219 | 25.7 | 41.8 | 0.03 | 0.03 | 0.08 | 95 | 1007.2 |
| 20260906122204 | 18 | 216 | 19.3 | 38.6 | 0.03 | 0.03 | 0.08 | 95 | 1007.2 |
| 20260906121704 | 18 | 213 | 19.3 | 33.8 | 0.03 | 0.03 | 0.08 | 95 | 1007.0 |
| 20260906121203 | 18 | 216 | 22.5 | 37.0 | 0.03 | 0.03 | 0.08 | 95 | 1007.0 |
| 20260906120704 | 18 | 209 | 19.3 | 38.6 | 0.03 | 0.03 | 0.08 | 95 | 1007.1 |
| 20260906120203 | 18 | 206 | 22.5 | 33.8 | 0.03 | 0.03 | 0.08 | 95 | 1007.2 |
| 20260906115703 | 18 | 217 | 11.3 | 35.4 | 0.03 | 0.03 | 0.08 | 95 | 1007.1 |
| 20260906114703 | 17 | 197 | 16.1 | 22.5 | 0.03 | 0.03 | 0.08 | 94 | 1007.0 |
| 20260906114204 | 17 | 190 | 16.1 | 25.7 | 0.03 | 0.03 | 0.08 | 94 | 1007.1 |
| 20260906113704 | 17 | 204 | 16.1 | 20.9 | 0.03 | 0.03 | 0.08 | 94 | 1007.0 |
| 20260906113204 | 17 | 198 | 20.9 | 37.0 | 0.00 | 0.00 | 0.05 | 94 | 1007.0 |
| 20260906112704 | 17 | 200 | 16.1 | 33.8 | 0.00 | 0.00 | 0.05 | 94 | 1007.0 |
| 20260906112203 | 17 | 208 | 20.9 | 32.2 | 0.00 | 0.00 | 0.05 | 94 | 1007.0 |
| 20260906111704 | 17 | 212 | 19.3 | 32.2 | 0.00 | 0.00 | 0.05 | 94 | 1007.0 |
| 20260906111204 | 17 | 213 | 19.3 | 32.2 | 0.00 | 0.00 | 0.05 | 93 | 1006.9 |
| 20260906110704 | 18 | 209 | 17.7 | 32.2 | 0.00 | 0.00 | 0.05 | 93 | 1006.9 |
| 20260906110204 | 18 | 202 | 17.7 | 41.8 | 0.00 | 0.00 | 0.05 | 93 | 1007.0 |
| 20260906105704 | 18 | 197 | 20.9 | 41.8 | 0.00 | 0.00 | 0.05 | 92 | 1007.0 |
| 20260906105204 | 18 | 205 | 22.5 | 45.1 | 0.00 | 0.00 | 0.05 | 92 | 1007.0 |
| 20260906104704 | 18 | 212 | 19.3 | 41.8 | 0.00 | 0.00 | 0.05 | 92 | 1007.0 |
| 20260906104204 | 18 | 206 | 20.9 | 40.2 | 0.00 | 0.00 | 0.05 | 92 | 1007.0 |
| 20260906103204 | 18 | 192 | 20.9 | 37.0 | 0.00 | 0.00 | 0.05 | 92 | 1007.0 |
| 20260906102704 | 18 | 204 | 25.7 | 49.9 | 0.00 | 0.00 | 0.05 | 91 | 1007.0 |
| 20260906102204 | 18 | 191 | 20.9 | 37.0 | 0.00 | 0.00 | 0.05 | 91 | 1006.8 |
| 20260906101704 | 18 | 202 | 20.9 | 45.1 | 0.00 | 0.00 | 0.05 | 91 | 1007.1 |
| 20260906101204 | 18 | 186 | 27.4 | 53.1 | 0.00 | 0.00 | 0.05 | 91 | 1007.0 |
| 20260906100703 | 18 | 196 | 25.7 | 38.6 | 0.00 | 0.00 | 0.05 | 90 | 1006.8 |
| 20260906100204 | 18 | 191 | 22.5 | 38.6 | 0.00 | 0.00 | 0.05 | 90 | 1007.1 |
| 20260906095204 | 18 | 194 | 30.6 | 51.5 | 0.00 | 0.00 | 0.05 | 89 | 1007.1 |
| 20260906093704 | 18 | 200 | 24.1 | 53.1 | 0.00 | 0.00 | 0.05 | 90 | 1007.4 |
| 20260906093204 | 18 | 192 | 24.1 | 46.7 | 0.00 | 0.00 | 0.05 | 90 | 1007.3 |
| 20260906092704 | 18 | 209 | 27.4 | 41.8 | 0.00 | 0.00 | 0.05 | 91 | 1007.4 |
| 20260906092204 | 18 | 205 | 20.9 | 41.8 | 0.00 | 0.00 | 0.05 | 91 | 1007.5 |
| 20260906091704 | 17 | 192 | 22.5 | 45.1 | 0.00 | 0.00 | 0.05 | 91 | 1007.5 |
| 20260906091203 | 17 | 192 | 20.9 | 32.2 | 0.00 | 0.00 | 0.05 | 91 | 1007.6 |
| 20260906090704 | 17 | 193 | 17.7 | 33.8 | 0.00 | 0.00 | 0.05 | 91 | 1007.6 |
| 20260906090204 | 17 | 178 | 24.1 | 35.4 | 0.00 | 0.00 | 0.05 | 90 | 1007.6 |
| 20260906085703 | 18 | 196 | 19.3 | 35.4 | 0.00 | 0.00 | 0.05 | 89 | 1007.8 |
| 20260906084705 | 18 | 175 | 25.7 | 46.7 | 0.00 | 0.00 | 0.05 | 88 | 1008.0 |
| 20260906084205 | 18 | 200 | 19.3 | 38.6 | 0.00 | 0.00 | 0.05 | 89 | 1008.1 |
| 20260906083204 | 18 | 183 | 19.3 | 41.8 | 0.00 | 0.00 | 0.05 | 89 | 1007.8 |
| 20260906082703 | 18 | 172 | 14.5 | 33.8 | 0.00 | 0.00 | 0.05 | 90 | 1007.8 |
| 20260906082204 | 18 | 170 | 17.7 | 38.6 | 0.00 | 0.00 | 0.05 | 90 | 1007.6 |
| 20260906081704 | 18 | 187 | 16.1 | 53.1 | 0.00 | 0.00 | 0.05 | 90 | 1007.7 |
| 20260906081204 | 18 | 178 | 16.1 | 41.8 | 0.00 | 0.00 | 0.05 | 90 | 1007.7 |
| 20260906080703 | 17 | 198 | 20.9 | 29.0 | 0.00 | 0.00 | 0.05 | 90 | 1007.9 |
| 20260906080204 | 17 | 181 | 19.3 | 41.8 | 0.00 | 0.00 | 0.05 | 91 | 1008.0 |
| 20260906075704 | 17 | 191 | 19.3 | 41.8 | 0.00 | 0.00 | 0.05 | 91 | 1008.0 |
| 20260906075204 | 17 | 184 | 22.5 | 38.6 | 0.00 | 0.00 | 0.05 | 91 | 1008.0 |
| 20260906074704 | 17 | 184 | 20.9 | 37.0 | 0.00 | 0.00 | 0.05 | 91 | 1008.2 |
| 20260906074204 | 17 | 191 | 12.9 | 33.8 | 0.00 | 0.00 | 0.05 | 91 | 1008.3 |
| 20260906073203 | 17 | 163 | 19.3 | 37.0 | 0.00 | 0.00 | 0.05 | 92 | 1008.5 |
| 20260906072704 | 17 | 178 | 20.9 | 33.8 | 0.00 | 0.00 | 0.05 | 92 | 1008.6 |
| 20260906072203 | 17 | 180 | 19.3 | 32.2 | 0.00 | 0.00 | 0.05 | 92 | 1008.7 |
| 20260906071703 | 17 | 178 | 19.3 | 35.4 | 0.00 | 0.00 | 0.05 | 92 | 1008.8 |
| 20260906071204 | 17 | 188 | 19.3 | 41.8 | 0.00 | 0.00 | 0.05 | 92 | 1008.8 |
| 20260906070704 | 17 | 179 | 14.5 | 29.0 | 0.00 | 0.00 | 0.05 | 93 | 1008.9 |
| 20260906070203 | 17 | 192 | 19.3 | 32.2 | 0.00 | 0.00 | 0.05 | 93 | 1008.9 |
| 20260906065704 | 17 | 187 | 17.7 | 37.0 | 0.00 | 0.00 | 0.05 | 93 | 1009.1 |
| 20260906065203 | 17 | 203 | 17.7 | 32.2 | 0.00 | 0.00 | 0.05 | 93 | 1009.2 |
| 20260906064704 | 17 | 183 | 16.1 | 38.6 | 0.00 | 0.00 | 0.05 | 93 | 1009.3 |
| 20260906064203 | 17 | 206 | 14.5 | 29.0 | 0.00 | 0.00 | 0.05 | 93 | 1009.4 |
| 20260906063703 | 17 | 203 | 16.1 | 29.0 | 0.00 | 0.00 | 0.05 | 94 | 1009.4 |
| 20260906063203 | 17 | 321 | 20.9 | 35.4 | 0.00 | 0.00 | 0.05 | 94 | 1009.6 |
| 20260906062704 | 17 | 184 | 17.7 | 41.8 | 0.00 | 0.00 | 0.05 | 94 | 1009.6 |
| 20260906062204 | 17 | 191 | 16.1 | 37.0 | 0.00 | 0.00 | 0.05 | 94 | 1009.7 |
| 20260906061704 | 17 | 181 | 16.1 | 29.0 | 0.00 | 0.00 | 0.05 | 94 | 1009.7 |
| 20260906060716 | 17 | 178 | 14.5 | 24.1 | 0.00 | 0.00 | 0.05 | 93 | 1009.9 |
| 20260906055704 | 17 | 210 | 16.1 | 35.4 | 0.00 | 0.00 | 0.05 | 93 | 1009.9 |
| 20260906055204 | 17 | 205 | 19.3 | 33.8 | 0.00 | 0.00 | 0.05 | 93 | 1010.0 |
| 20260906054704 | 17 | 202 | 20.9 | 38.6 | 0.00 | 0.00 | 0.05 | 92 | 1010.0 |
| 20260906054204 | 17 | 195 | 20.9 | 41.8 | 0.00 | 0.00 | 0.05 | 92 | 1010.2 |
| 20260906053703 | 17 | 216 | 19.3 | 32.2 | 0.00 | 0.00 | 0.05 | 92 | 1010.0 |
| 20260906051204 | 17 | 184 | 17.7 | 32.2 | 0.00 | 0.00 | 0.05 | 92 | 1010.4 |
| 20260906050704 | 17 | 199 | 16.1 | 24.1 | 0.00 | 0.03 | 0.05 | 92 | 1010.5 |
| 20260906050204 | 17 | 185 | 17.7 | 35.4 | 0.00 | 0.03 | 0.05 | 92 | 1010.6 |
| 20260906045704 | 17 | 207 | 12.9 | 27.4 | 0.00 | 0.03 | 0.05 | 92 | 1010.7 |
| 20260906045204 | 17 | 201 | 19.3 | 32.2 | 0.00 | 0.03 | 0.05 | 92 | 1010.7 |
| 20260906044704 | 17 | 176 | 11.3 | 29.0 | 0.00 | 0.03 | 0.05 | 92 | 1010.9 |
| 20260906044204 | 18 | 197 | 14.5 | 22.5 | 0.00 | 0.03 | 0.05 | 92 | 1010.9 |
| 20260906043703 | 18 | 167 | 11.3 | 32.2 | 0.00 | 0.03 | 0.05 | 92 | 1011.1 |
| 20260906043204 | 18 | 188 | 16.1 | 32.2 | 0.00 | 0.03 | 0.05 | 92 | 1011.2 |
| 20260906042704 | 17 | 184 | 16.1 | 32.2 | 0.00 | 0.03 | 0.05 | 92 | 1011.2 |
| 20260906042205 | 18 | 186 | 8.0 | 19.3 | 0.00 | 0.03 | 0.05 | 92 | 1011.3 |
| 20260906041704 | 18 | 173 | 9.7 | 29.0 | 0.00 | 0.03 | 0.05 | 92 | 1011.5 |
| 20260906041204 | 17 | 165 | 16.1 | 35.4 | 0.00 | 0.03 | 0.05 | 92 | 1011.4 |
| 20260906040703 | 17 | 183 | 14.5 | 32.2 | 0.00 | 0.03 | 0.05 | 93 | 1011.5 |
| 20260906040204 | 17 | 171 | 14.5 | 29.0 | 0.00 | 0.03 | 0.05 | 93 | 1011.5 |
| 20260906035704 | 17 | 147 | 16.1 | 32.2 | 0.00 | 0.03 | 0.05 | 93 | 1011.5 |
| 20260906035204 | 17 | 165 | 11.3 | 33.8 | 0.00 | 0.03 | 0.05 | 93 | 1011.7 |
| 20260906034704 | 17 | 162 | 20.9 | 33.8 | 0.00 | 0.03 | 0.05 | 93 | 1011.6 |
| 20260906034203 | 17 | 187 | 19.3 | 35.4 | 0.00 | 0.03 | 0.05 | 93 | 1011.8 |
| 20260906033703 | 17 | 164 | 16.1 | 27.4 | 0.00 | 0.03 | 0.05 | 93 | 1011.9 |
| 20260906033204 | 17 | 195 | 17.7 | 35.4 | 0.00 | 0.03 | 0.05 | 93 | 1011.8 |
| 20260906032203 | 17 | 175 | 17.7 | 41.8 | 0.00 | 0.03 | 0.05 | 93 | 1011.9 |
| 20260906031704 | 17 | 193 | 16.1 | 32.2 | 0.00 | 0.05 | 0.05 | 93 | 1011.9 |
| 20260906031204 | 17 | 197 | 16.1 | 32.2 | 0.00 | 0.05 | 0.05 | 93 | 1011.9 |
| 20260906030705 | 17 | 183 | 19.3 | 33.8 | 0.00 | 0.05 | 0.05 | 93 | 1011.9 |
| 20260906030204 | 17 | 197 | 22.5 | 41.8 | 0.00 | 0.05 | 0.05 | 93 | 1011.8 |
| 20260906025703 | 17 | 182 | 16.1 | 41.8 | 0.00 | 0.05 | 0.05 | 93 | 1012.0 |
| 20260906024704 | 17 | 188 | 27.4 | 41.8 | 0.00 | 0.05 | 0.05 | 93 | 1012.0 |
| 20260906024203 | 17 | 192 | 19.3 | 33.8 | 0.00 | 0.05 | 0.05 | 93 | 1012.2 |
| 20260906023204 | 17 | 177 | 20.9 | 37.0 | 0.00 | 0.05 | 0.05 | 93 | 1012.5 |
| 20260906022204 | 17 | 175 | 16.1 | 32.2 | 0.00 | 0.05 | 0.05 | 93 | 1012.7 |
| 20260906021704 | 17 | 195 | 19.3 | 33.8 | 0.00 | 0.05 | 0.05 | 93 | 1012.8 |
| 20260906020704 | 17 | 213 | 19.3 | 33.8 | 0.00 | 0.05 | 0.05 | 93 | 1012.9 |
| 20260906015703 | 17 | 183 | 16.1 | 32.2 | 0.00 | 0.05 | 0.05 | 93 | 1013.1 |
| 20260906015204 | 17 | 175 | 12.9 | 35.4 | 0.00 | 0.05 | 0.05 | 93 | 1013.1 |
| 20260906014203 | 17 | 176 | 16.1 | 32.2 | 0.00 | 0.05 | 0.05 | 93 | 1013.3 |
| 20260906013704 | 17 | 199 | 16.1 | 32.2 | 0.00 | 0.05 | 0.05 | 93 | 1013.5 |
| 20260906013203 | 17 | 167 | 16.1 | 32.2 | 0.00 | 0.05 | 0.05 | 93 | 1013.4 |
| 20260906012704 | 17 | 186 | 16.1 | 35.4 | 0.00 | 0.05 | 0.05 | 93 | 1013.6 |
| 20260906012204 | 17 | 172 | 11.3 | 32.2 | 0.00 | 0.05 | 0.05 | 93 | 1013.7 |
| 20260906011704 | 17 | 199 | 11.3 | 38.6 | 0.00 | 0.05 | 0.05 | 93 | 1013.8 |
| 20260906011203 | 17 | 190 | 17.7 | 29.0 | 0.00 | 0.05 | 0.05 | 93 | 1013.9 |
| 20260906010703 | 17 | 200 | 16.1 | 32.2 | 0.00 | 0.05 | 0.05 | 93 | 1014.0 |
| 20260906010205 | 17 | 203 | 16.1 | 33.8 | 0.00 | 0.05 | 0.05 | 93 | 1014.1 |
| 20260906005704 | 17 | 208 | 14.5 | 24.1 | 0.00 | 0.05 | 0.05 | 93 | 1014.1 |
| 20260906005204 | 17 | 197 | 16.1 | 32.2 | 0.00 | 0.05 | 0.05 | 93 | 1014.1 |
| 20260906004703 | 17 | 196 | 16.1 | 32.2 | 0.00 | 0.05 | 0.05 | 94 | 1014.2 |
| 20260906004203 | 17 | 205 | 14.5 | 27.4 | 0.00 | 0.05 | 0.05 | 94 | 1014.1 |
| 20260906003703 | 17 | 209 | 17.7 | 24.1 | 0.00 | 0.05 | 0.05 | 94 | 1014.2 |
| 20260906003203 | 17 | 192 | 20.9 | 29.0 | 0.00 | 0.05 | 0.05 | 93 | 1014.3 |
| 20260906002704 | 17 | 206 | 14.5 | 29.0 | 0.00 | 0.05 | 0.05 | 93 | 1014.2 |
| 20260906002204 | 16 | 204 | 19.3 | 29.0 | 0.00 | 0.05 | 0.05 | 93 | 1014.3 |
| 20260906001704 | 16 | 211 | 19.3 | 32.2 | 0.00 | 0.05 | 0.05 | 94 | 1014.2 |
| 20260906001204 | 16 | 214 | 17.7 | 32.2 | 0.00 | 0.05 | 0.05 | 94 | 1014.4 |
| 20260906000704 | 16 | 197 | 20.9 | 32.2 | 0.00 | 0.05 | 0.05 | 94 | 1014.3 |
| 20260906000204 | 16 | 207 | 12.9 | 32.2 | 0.00 | 0.05 | 0.05 | 94 | 1014.4 |
| 20260905235704 | 16 | 209 | 14.5 | 22.5 | 0.00 | 0.05 | 0.05 | 94 | 1014.4 |
| 20260905235204 | 16 | 199 | 11.3 | 22.5 | 0.00 | 0.05 | 0.05 | 94 | 1014.5 |
| 20260905234704 | 16 | 202 | 16.1 | 27.4 | 0.00 | 0.05 | 0.05 | 94 | 1014.5 |
| 20260905234203 | 16 | 278 | 9.7 | 24.1 | 0.00 | 0.05 | 0.05 | 94 | 1014.5 |
| 20260905233704 | 16 | 187 | 9.7 | 25.7 | 0.00 | 0.05 | 0.05 | 94 | 1014.6 |
| 20260905233204 | 16 | 182 | 14.5 | 24.1 | 0.00 | 0.05 | 0.05 | 94 | 1014.6 |
| 20260905232704 | 16 | 174 | 9.7 | 20.9 | 0.00 | 0.05 | 0.05 | 94 | 1014.7 |
| 20260905232204 | 16 | 174 | 12.9 | 22.5 | 0.00 | 0.05 | 0.05 | 94 | 1014.7 |
| 20260905230704 | 15 | 172 | 17.7 | 25.7 | 0.00 | 0.05 | 0.05 | 93 | 1014.9 |
| 20260905223704 | 15 | 164 | 14.5 | 27.4 | 0.00 | 0.05 | 0.05 | 93 | 1015.3 |
| 20260905223203 | 15 | 159 | 17.7 | 25.7 | 0.00 | 0.05 | 0.05 | 93 | 1015.3 |
| 20260905222704 | 15 | 357 | 20.9 | 27.4 | 0.00 | 0.05 | 0.05 | 92 | 1015.3 |
| 20260905222204 | 15 | 147 | 9.7 | 20.9 | 0.00 | 0.05 | 0.05 | 92 | 1015.3 |
| 20260905221704 | 15 | 205 | 8.0 | 22.5 | 0.00 | 0.05 | 0.05 | 92 | 1015.5 |
| 20260905221204 | 15 | 179 | 11.3 | 19.3 | 0.00 | 0.05 | 0.05 | 92 | 1015.5 |
| 20260905220704 | 15 | 179 | 4.8 | 25.7 | 0.00 | 0.05 | 0.05 | 92 | 1015.8 |
| 20260905215704 | 15 | 160 | 11.3 | 29.0 | 0.00 | 0.05 | 0.05 | 91 | 1015.7 |
| 20260905215203 | 15 | 174 | 8.0 | 24.1 | 0.00 | 0.05 | 0.05 | 91 | 1015.8 |
| 20260905214703 | 15 | 60 | 9.7 | 29.0 | 0.00 | 0.05 | 0.05 | 91 | 1015.8 |
| 20260905214204 | 15 | 152 | 9.7 | 22.5 | 0.00 | 0.05 | 0.05 | 91 | 1015.8 |
| 20260905213705 | 15 | 158 | 8.0 | 16.1 | 0.00 | 0.05 | 0.05 | 91 | 1016.0 |
| 20260905213204 | 15 | 172 | 9.7 | 20.9 | 0.00 | 0.05 | 0.05 | 91 | 1016.0 |
| 20260905212204 | 15 | 176 | 22.5 | 33.8 | 0.00 | 0.05 | 0.05 | 91 | 1016.0 |
| 20260905211704 | 15 | 173 | 17.7 | 27.4 | 0.00 | 0.05 | 0.05 | 91 | 1016.1 |
| 20260905211204 | 15 | 157 | 16.1 | 33.8 | 0.00 | 0.05 | 0.05 | 91 | 1016.1 |
| 20260905210704 | 15 | 176 | 11.3 | 20.9 | 0.00 | 0.05 | 0.05 | 91 | 1016.5 |
| 20260905210204 | 14 | 178 | 14.5 | 22.5 | 0.00 | 0.05 | 0.05 | 91 | 1016.5 |
| 20260905205704 | 14 | 160 | 16.1 | 27.4 | 0.00 | 0.05 | 0.05 | 91 | 1016.6 |
| 20260905205204 | 14 | 165 | 14.5 | 25.7 | 0.00 | 0.05 | 0.05 | 91 | 1016.5 |
| 20260905204703 | 14 | 168 | 16.1 | 25.7 | 0.00 | 0.05 | 0.05 | 90 | 1016.7 |
| 20260905204203 | 14 | 157 | 14.5 | 32.2 | 0.00 | 0.05 | 0.05 | 90 | 1016.6 |
| 20260905203704 | 14 | 186 | 14.5 | 29.0 | 0.00 | 0.05 | 0.05 | 90 | 1016.8 |
| 20260905203204 | 15 | 156 | 19.3 | 32.2 | 0.00 | 0.05 | 0.05 | 89 | 1016.8 |
| 20260905202704 | 15 | 169 | 14.5 | 29.0 | 0.00 | 0.05 | 0.05 | 89 | 1017.0 |
| 20260905202205 | 15 | 177 | 17.7 | 27.4 | 0.00 | 0.05 | 0.05 | 88 | 1017.1 |
| 20260905201204 | 15 | 154 | 17.7 | 33.8 | 0.00 | 0.05 | 0.05 | 88 | 1017.0 |
| 20260905200704 | 15 | 169 | 14.5 | 35.4 | 0.00 | 0.05 | 0.05 | 88 | 1017.0 |
| 20260905200204 | 15 | 169 | 12.9 | 25.7 | 0.00 | 0.05 | 0.05 | 87 | 1017.0 |
| 20260905195704 | 15 | 166 | 14.5 | 29.0 | 0.00 | 0.05 | 0.05 | 87 | 1017.0 |
| 20260905195203 | 15 | 178 | 16.1 | 32.2 | 0.00 | 0.05 | 0.05 | 86 | 1017.1 |
| 20260905194704 | 15 | 180 | 12.9 | 32.2 | 0.00 | 0.05 | 0.05 | 86 | 1017.1 |
| 20260905194203 | 15 | 176 | 17.7 | 35.4 | 0.00 | 0.05 | 0.05 | 85 | 1017.1 |
| 20260905193705 | 15 | 165 | 14.5 | 27.4 | 0.00 | 0.05 | 0.05 | 84 | 1017.2 |
| 20260905193203 | 15 | 176 | 14.5 | 33.8 | 0.00 | 0.05 | 0.05 | 84 | 1017.2 |
| 20260905192203 | 15 | 175 | 11.3 | 25.7 | 0.00 | 0.05 | 0.05 | 83 | 1017.2 |
| 20260905191704 | 15 | 183 | 16.1 | 29.0 | 0.00 | 0.05 | 0.05 | 83 | 1017.2 |
| 20260905190704 | 15 | 176 | 14.5 | 32.2 | 0.00 | 0.05 | 0.05 | 81 | 1017.3 |
| 20260905190203 | 15 | 188 | 9.7 | 32.2 | 0.00 | 0.05 | 0.05 | 81 | 1017.3 |
| 20260905185704 | 15 | 184 | 14.5 | 24.1 | 0.00 | 0.05 | 0.05 | 80 | 1017.3 |
| 20260905184704 | 15 | 167 | 9.7 | 16.1 | 0.00 | 0.05 | 0.05 | 80 | 1017.4 |
| 20260905184204 | 15 | 193 | 6.4 | 11.3 | 0.00 | 0.05 | 0.05 | 79 | 1017.6 |
| 20260905183704 | 15 | 134 | 9.7 | 19.3 | 0.00 | 0.05 | 0.05 | 79 | 1017.7 |
| 20260905183204 | 15 | 177 | 8.0 | 14.5 | 0.00 | 0.05 | 0.05 | 79 | 1017.7 |
| 20260905182704 | 15 | 146 | 6.4 | 12.9 | 0.00 | 0.05 | 0.05 | 79 | 1017.6 |
| 20260905182204 | 15 | 174 | 6.4 | 19.3 | 0.00 | 0.05 | 0.05 | 79 | 1017.7 |
| 20260905181203 | 15 | 185 | 9.7 | 16.1 | 0.00 | 0.05 | 0.05 | 78 | 1017.8 |
| 20260905180204 | 15 | 167 | 9.7 | 20.9 | 0.00 | 0.05 | 0.05 | 78 | 1017.8 |
| 20260905175704 | 15 | 181 | 9.7 | 20.9 | 0.00 | 0.05 | 0.05 | 79 | 1017.9 |
| 20260905174704 | 15 | 164 | 11.3 | 19.3 | 0.00 | 0.05 | 0.05 | 79 | 1018.1 |
| 20260905174204 | 16 | 163 | 6.4 | 19.3 | 0.00 | 0.05 | 0.05 | 79 | 1018.1 |
| 20260905173703 | 16 | 176 | 9.7 | 12.9 | 0.00 | 0.05 | 0.05 | 79 | 1018.2 |
| 20260905173204 | 16 | 167 | 8.0 | 20.9 | 0.00 | 0.05 | 0.05 | 79 | 1018.3 |
| 20260905172704 | 16 | 186 | 8.0 | 16.1 | 0.00 | 0.05 | 0.05 | 80 | 1018.3 |
| 20260905172204 | 16 | 179 | 9.7 | 19.3 | 0.00 | 0.05 | 0.05 | 80 | 1018.4 |
| 20260905171703 | 16 | 179 | 9.7 | 19.3 | 0.00 | 0.05 | 0.05 | 80 | 1018.4 |
| 20260905171204 | 16 | 185 | 8.0 | 16.1 | 0.00 | 0.05 | 0.05 | 80 | 1018.5 |
| 20260905170704 | 16 | 187 | 6.4 | 12.9 | 0.00 | 0.05 | 0.05 | 80 | 1018.5 |
| 20260905170204 | 16 | 185 | 8.0 | 16.1 | 0.00 | 0.05 | 0.05 | 80 | 1018.5 |
| 20260905165704 | 16 | 188 | 9.7 | 14.5 | 0.00 | 0.05 | 0.05 | 80 | 1018.7 |
| 20260905165204 | 16 | 174 | 8.0 | 16.1 | 0.00 | 0.05 | 0.05 | 81 | 1018.8 |
| 20260905164703 | 16 | 161 | 11.3 | 19.3 | 0.00 | 0.05 | 0.05 | 81 | 1018.8 |
| 20260905163204 | 16 | 186 | 9.7 | 19.3 | 0.00 | 0.05 | 0.05 | 80 | 1019.1 |
| 20260905162704 | 16 | 187 | 11.3 | 22.5 | 0.00 | 0.05 | 0.05 | 79 | 1019.1 |
| 20260905162203 | 16 | 182 | 8.0 | 16.1 | 0.00 | 0.05 | 0.05 | 79 | 1019.1 |